Terminal Aerodrome Forecast
Issued by NWS

Home | Current Version | Previous Version | Graphics & Text | Print | Product List | Glossary On
Versions: 1 2 3 4 5 6 7 8 9 10 11 12 13 14 15
000
FTUS42 KMHX 030211 AAA
TAFOAJ
TAF AMD
KOAJ 030211Z 0302/0324 22009G15KT P6SM VCSH BKN050
     FM030800 21009KT P6SM BKN080
     FM031600 22012G22KT P6SM VCTS BKN035CB
      AMD LTD TO CLD VIS AND WIND=

USA.gov is the U.S. government's official web portal to all federal, state and local government web resources and services.